owner,sensor,date,latitude,longitude,vertical_datum,wind_speed,wind_to_direction,wind_speed_of_gust,qcFlag 
COMPS,ioos:station:USF.COMPS:BGC:1,2014-11-01T00:00:00Z,26.4040,-81.8810,10.0,3.29,313.33,5.29,'1111122,1111122,1111122' 
COMPS,ioos:station:USF.COMPS:BGC:1,2014-11-01T00:06:00Z,26.4040,-81.8810,10.0,3.52,316.87,5.09,'1111122,1111122,1111122' 
COMPS,ioos:station:USF.COMPS:BGC:1,2014-11-01T00:12:00Z,26.4040,-81.8810,10.0,4.29,321.73,5.68,'1111122,1111122,1111122' 
COMPS,ioos:station:USF.COMPS:BGC:1,2014-11-01T00:18:00Z,26.4040,-81.8810,10.0,4.32,320.34,6.76,'1111122,1111122,1111122' 
COMPS,ioos:station:USF.COMPS:BGC:1,2014-11-01T00:24:00Z,26.4040,-81.8810,10.0,4.79,326.05,6.86,'1111122,1111122,1111122' 
COMPS,ioos:station:USF.COMPS:BGC:1,2014-11-01T00:30:00Z,26.4040,-81.8810,10.0,5.64,328.64,7.64,'1111122,1111122,1111122' 
COMPS,ioos:station:USF.COMPS:BGC:1,2014-11-01T00:36:00Z,26.4040,-81.8810,10.0,5.45,326.95,7.44,'1111122,1111122,1111122' 
COMPS,ioos:station:USF.COMPS:BGC:1,2014-11-01T00:42:00Z,26.4040,-81.8810,10.0,5.66,328.7,7.05,'1111122,1111122,1111122' 
COMPS,ioos:station:USF.COMPS:BGC:1,2014-11-01T00:48:00Z,26.4040,-81.8810,10.0,5.08,334.1,6.27,'1111122,1111122,1111122' 
COMPS,ioos:station:USF.COMPS:BGC:1,2014-11-01T00:54:00Z,26.4040,-81.8810,10.0,4.94,340.94,7.15,'1111122,1111122,1111122' 
COMPS,ioos:station:USF.COMPS:BGC:1,2014-11-01T01:00:00Z,26.4040,-81.8810,10.0,4.78,337.85,6.37,'1111122,1111122,1111122' 
COMPS,ioos:station:USF.COMPS:BGC:1,2014-11-01T01:06:00Z,26.4040,-81.8810,10.0,4.85,338.22,6.37,'1111122,1111122,1111122' 
COMPS,ioos:station:USF.COMPS:BGC:1,2014-11-01T01:12:00Z,26.4040,-81.8810,10.0,4.9,337.44,6.37,'1111122,1111122,1111122' 
COMPS,ioos:station:USF.COMPS:BGC:1,2014-11-01T01:18:00Z,26.4040,-81.8810,10.0,5.04,337.69,6.95,'1111122,1111122,1111122' 
COMPS,ioos:station:USF.COMPS:BGC:1,2014-11-01T01:24:00Z,26.4040,-81.8810,10.0,4.97,335.59,6.66,'1111122,1111122,1111122' 
COMPS,ioos:station:USF.COMPS:BGC:1,2014-11-01T01:30:00Z,26.4040,-81.8810,10.0,5.2,335.93,7.44,'1111122,1111122,1111122' 
COMPS,ioos:station:USF.COMPS:BGC:1,2014-11-01T01:36:00Z,26.4040,-81.8810,10.0,5.39,332.64,7.05,'1111122,1111122,1111122' 
COMPS,ioos:station:USF.COMPS:BGC:1,2014-11-01T01:42:00Z,26.4040,-81.8810,10.0,5.13,335.31,7.44,'1111122,1111122,1111122' 
COMPS,ioos:station:USF.COMPS:BGC:1,2014-11-01T01:48:00Z,26.4040,-81.8810,10.0,4.77,336.41,5.97,'1111122,1111122,1111122' 
COMPS,ioos:station:USF.COMPS:BGC:1,2014-11-01T01:54:00Z,26.4040,-81.8810,10.0,4.77,336.52,5.88,'1111122,1111122,1111122' 
COMPS,ioos:station:USF.COMPS:BGC:1,2014-11-01T02:00:00Z,26.4040,-81.8810,10.0,4.62,339.25,6.17,'1111122,1111122,1111122' 
COMPS,ioos:station:USF.COMPS:BGC:1,2014-11-01T02:06:00Z,26.4040,-81.8810,10.0,4.56,334.05,5.97,'1111122,1111122,1111122' 
COMPS,ioos:station:USF.COMPS:BGC:1,2014-11-01T02:12:00Z,26.4040,-81.8810,10.0,4.38,336.5,5.88,'1111122,1111122,1111122' 
COMPS,ioos:station:USF.COMPS:BGC:1,2014-11-01T02:18:00Z,26.4040,-81.8810,10.0,4.99,335.49,6.07,'1111122,1111122,1111122' 
COMPS,ioos:station:USF.COMPS:BGC:1,2014-11-01T02:24:00Z,26.4040,-81.8810,10.0,4.37,336.0,6.07,'1111122,1111122,1111122' 
COMPS,ioos:station:USF.COMPS:BGC:1,2014-11-01T02:30:00Z,26.4040,-81.8810,10.0,4.53,333.01,5.78,'1111122,1111122,1111122' 
COMPS,ioos:station:USF.COMPS:BGC:1,2014-11-01T02:36:00Z,26.4040,-81.8810,10.0,4.28,334.47,5.97,'1111122,1111122,1111122' 
COMPS,ioos:station:USF.COMPS:BGC:1,2014-11-01T02:42:00Z,26.4040,-81.8810,10.0,4.8,330.24,5.97,'1111122,1111122,1111122' 
COMPS,ioos:station:USF.COMPS:BGC:1,2014-11-01T02:48:00Z,26.4040,-81.8810,10.0,5.02,329.86,6.56,'1111122,1111122,1111122' 
COMPS,ioos:station:USF.COMPS:BGC:1,2014-11-01T02:54:00Z,26.4040,-81.8810,10.0,4.18,334.98,5.39,'1111122,1111122,1111122' 
COMPS,ioos:station:USF.COMPS:BGC:1,2014-11-01T03:00:00Z,26.4040,-81.8810,10.0,4.29,336.07,5.88,'1111122,1111122,1111122' 
COMPS,ioos:station:USF.COMPS:BGC:1,2014-11-01T03:06:00Z,26.4040,-81.8810,10.0,4.26,335.2,5.29,'1111122,1111122,1111122' 
COMPS,ioos:station:USF.COMPS:BGC:1,2014-11-01T03:12:00Z,26.4040,-81.8810,10.0,3.71,335.32,5.09,'1111122,1111122,1111122' 
COMPS,ioos:station:USF.COMPS:BGC:1,2014-11-01T03:18:00Z,26.4040,-81.8810,10.0,3.88,337.06,4.99,'1111122,1111122,1111122' 
COMPS,ioos:station:USF.COMPS:BGC:1,2014-11-01T03:24:00Z,26.4040,-81.8810,10.0,3.71,337.27,5.58,'1111122,1111122,1111122' 
COMPS,ioos:station:USF.COMPS:BGC:1,2014-11-01T03:30:00Z,26.4040,-81.8810,10.0,3.75,338.37,5.48,'1111122,1111122,1111122' 
COMPS,ioos:station:USF.COMPS:BGC:1,2014-11-01T03:36:00Z,26.4040,-81.8810,10.0,3.66,339.13,5.09,'1111122,1111122,1111122' 
COMPS,ioos:station:USF.COMPS:BGC:1,2014-11-01T03:42:00Z,26.4040,-81.8810,10.0,3.37,341.38,4.7,'1111122,1111122,1111122' 
COMPS,ioos:station:USF.COMPS:BGC:1,2014-11-01T03:48:00Z,26.4040,-81.8810,10.0,3.05,345.02,4.8,'1111122,1111122,1111122' 
COMPS,ioos:station:USF.COMPS:BGC:1,2014-11-01T03:54:00Z,26.4040,-81.8810,10.0,3.2,337.42,4.41,'1111122,1111122,1111122' 
COMPS,ioos:station:USF.COMPS:BGC:1,2014-11-01T04:00:00Z,26.4040,-81.8810,10.0,3.09,339.76,4.8,'1111122,1111122,1111122' 
COMPS,ioos:station:USF.COMPS:BGC:1,2014-11-01T04:06:00Z,26.4040,-81.8810,10.0,3.54,339.96,5.09,'1111122,1111122,1111122' 
COMPS,ioos:station:USF.COMPS:BGC:1,2014-11-01T04:12:00Z,26.4040,-81.8810,10.0,3.89,339.9,5.78,'1111122,1111122,1111122' 
COMPS,ioos:station:USF.COMPS:BGC:1,2014-11-01T04:18:00Z,26.4040,-81.8810,10.0,3.5,342.93,4.21,'1111122,1111122,1111122' 
COMPS,ioos:station:USF.COMPS:BGC:1,2014-11-01T04:24:00Z,26.4040,-81.8810,10.0,3.53,342.48,4.99,'1111122,1111122,1111122' 
COMPS,ioos:station:USF.COMPS:BGC:1,2014-11-01T04:30:00Z,26.4040,-81.8810,10.0,3.46,337.02,5.19,'1111122,1111122,1111122' 
COMPS,ioos:station:USF.COMPS:BGC:1,2014-11-01T04:36:00Z,26.4040,-81.8810,10.0,4.16,331.67,5.68,'1111122,1111122,1111122' 
COMPS,ioos:station:USF.COMPS:BGC:1,2014-11-01T04:42:00Z,26.4040,-81.8810,10.0,3.99,336.34,5.29,'1111122,1111122,1111122' 
COMPS,ioos:station:USF.COMPS:BGC:1,2014-11-01T04:48:00Z,26.4040,-81.8810,10.0,4.08,338.2,4.99,'1111122,1111122,1111122' 
COMPS,ioos:station:USF.COMPS:BGC:1,2014-11-01T04:54:00Z,26.4040,-81.8810,10.0,3.97,339.18,4.9,'1111122,1111122,1111122' 
COMPS,ioos:station:USF.COMPS:BGC:1,2014-11-01T05:00:00Z,26.4040,-81.8810,10.0,4.11,338.6,4.99,'1111122,1111122,1111122' 
COMPS,ioos:station:USF.COMPS:BGC:1,2014-11-01T05:06:00Z,26.4040,-81.8810,10.0,3.97,340.15,4.9,'1111122,1111122,1111122' 
COMPS,ioos:station:USF.COMPS:BGC:1,2014-11-01T05:12:00Z,26.4040,-81.8810,10.0,4.78,337.48,6.76,'1111122,1111122,1111122' 
COMPS,ioos:station:USF.COMPS:BGC:1,2014-11-01T05:18:00Z,26.4040,-81.8810,10.0,4.63,334.63,6.86,'1111122,1111122,1111122' 
COMPS,ioos:station:USF.COMPS:BGC:1,2014-11-01T05:24:00Z,26.4040,-81.8810,10.0,4.41,335.1,6.17,'1111122,1111122,1111122' 
COMPS,ioos:station:USF.COMPS:BGC:1,2014-11-01T05:30:00Z,26.4040,-81.8810,10.0,5.65,331.61,7.74,'1111122,1111122,1111122' 
COMPS,ioos:station:USF.COMPS:BGC:1,2014-11-01T05:36:00Z,26.4040,-81.8810,10.0,5.98,332.41,7.93,'1111122,1111122,1111122' 
COMPS,ioos:station:USF.COMPS:BGC:1,2014-11-01T05:42:00Z,26.4040,-81.8810,10.0,5.07,336.15,6.56,'1111122,1111122,1111122' 
COMPS,ioos:station:USF.COMPS:BGC:1,2014-11-01T05:48:00Z,26.4040,-81.8810,10.0,5.22,337.02,6.56,'1111122,1111122,1111122' 
COMPS,ioos:station:USF.COMPS:BGC:1,2014-11-01T05:54:00Z,26.4040,-81.8810,10.0,4.94,337.45,5.68,'1111122,1111122,1111122' 
COMPS,ioos:station:USF.COMPS:BGC:1,2014-11-01T06:00:00Z,26.4040,-81.8810,10.0,4.81,336.36,5.88,'1111122,1111122,1111122' 
COMPS,ioos:station:USF.COMPS:BGC:1,2014-11-01T06:06:00Z,26.4040,-81.8810,10.0,4.33,340.98,5.29,'1111122,1111122,1111122' 
COMPS,ioos:station:USF.COMPS:BGC:1,2014-11-01T06:12:00Z,26.4040,-81.8810,10.0,4.09,341.66,5.58,'1111122,1111122,1111122' 
COMPS,ioos:station:USF.COMPS:BGC:1,2014-11-01T06:18:00Z,26.4040,-81.8810,10.0,3.85,346.53,4.7,'1111122,1111122,1111122' 
COMPS,ioos:station:USF.COMPS:BGC:1,2014-11-01T06:24:00Z,26.4040,-81.8810,10.0,3.72,346.66,4.6,'1111122,1111122,1111122' 
COMPS,ioos:station:USF.COMPS:BGC:1,2014-11-01T06:30:00Z,26.4040,-81.8810,10.0,3.48,347.53,4.9,'1111122,1111122,1111122' 
COMPS,ioos:station:USF.COMPS:BGC:1,2014-11-01T06:36:00Z,26.4040,-81.8810,10.0,3.31,346.53,4.7,'1111122,1111122,1111122' 
COMPS,ioos:station:USF.COMPS:BGC:1,2014-11-01T06:42:00Z,26.4040,-81.8810,10.0,2.99,353.23,4.01,'1111122,1111122,1111122' 
COMPS,ioos:station:USF.COMPS:BGC:1,2014-11-01T06:48:00Z,26.4040,-81.8810,10.0,3.22,356.31,3.72,'1111122,1111122,1111122' 
COMPS,ioos:station:USF.COMPS:BGC:1,2014-11-01T06:54:00Z,26.4040,-81.8810,10.0,2.9,350.94,3.72,'1111122,1111122,1111122' 
COMPS,ioos:station:USF.COMPS:BGC:1,2014-11-01T07:00:00Z,26.4040,-81.8810,10.0,2.95,351.67,3.72,'1111122,1111122,1111122' 
COMPS,ioos:station:USF.COMPS:BGC:1,2014-11-01T07:06:00Z,26.4040,-81.8810,10.0,3.29,355.3,4.21,'1111122,1111122,1111122' 
COMPS,ioos:station:USF.COMPS:BGC:1,2014-11-01T07:12:00Z,26.4040,-81.8810,10.0,3.24,354.02,3.92,'1111122,1111122,1111122' 
COMPS,ioos:station:USF.COMPS:BGC:1,2014-11-01T07:18:00Z,26.4040,-81.8810,10.0,3.01,353.3,3.52,'1111122,1111122,1111122' 
COMPS,ioos:station:USF.COMPS:BGC:1,2014-11-01T07:24:00Z,26.4040,-81.8810,10.0,2.56,351.64,3.62,'1111122,1111122,1111122' 
COMPS,ioos:station:USF.COMPS:BGC:1,2014-11-01T07:30:00Z,26.4040,-81.8810,10.0,3.58,357.7,4.11,'1111122,1111122,1111122' 
COMPS,ioos:station:USF.COMPS:BGC:1,2014-11-01T07:36:00Z,26.4040,-81.8810,10.0,2.93,357.32,3.62,'1111122,1111122,1111122' 
COMPS,ioos:station:USF.COMPS:BGC:1,2014-11-01T07:42:00Z,26.4040,-81.8810,10.0,3.24,357.69,3.82,'1111122,1111122,1111122' 
COMPS,ioos:station:USF.COMPS:BGC:1,2014-11-01T07:48:00Z,26.4040,-81.8810,10.0,3.2,359.41,3.82,'1111122,1111122,1111122' 
COMPS,ioos:station:USF.COMPS:BGC:1,2014-11-01T07:54:00Z,26.4040,-81.8810,10.0,2.6,355.01,3.33,'1111122,1111122,1111122' 
COMPS,ioos:station:USF.COMPS:BGC:1,2014-11-01T08:00:00Z,26.4040,-81.8810,10.0,2.26,353.6,3.13,'1111122,1111122,1111122' 
COMPS,ioos:station:USF.COMPS:BGC:1,2014-11-01T08:06:00Z,26.4040,-81.8810,10.0,2.29,13.99,3.33,'1111122,1111122,1111122' 
COMPS,ioos:station:USF.COMPS:BGC:1,2014-11-01T08:12:00Z,26.4040,-81.8810,10.0,1.29,48.54,2.25,'1111122,1111122,1111122' 
COMPS,ioos:station:USF.COMPS:BGC:1,2014-11-01T08:18:00Z,26.4040,-81.8810,10.0,1.67,45.5,2.05,'1111122,1111122,1111122' 
COMPS,ioos:station:USF.COMPS:BGC:1,2014-11-01T08:24:00Z,26.4040,-81.8810,10.0,1.14,45.04,2.05,'1111122,1111122,1111122' 
COMPS,ioos:station:USF.COMPS:BGC:1,2014-11-01T08:30:00Z,26.4040,-81.8810,10.0,1.3,35.14,1.76,'1111122,1111122,1111122' 
COMPS,ioos:station:USF.COMPS:BGC:1,2014-11-01T08:36:00Z,26.4040,-81.8810,10.0,0.88,43.69,1.37,'1111122,1111122,1111122' 
COMPS,ioos:station:USF.COMPS:BGC:1,2014-11-01T08:42:00Z,26.4040,-81.8810,10.0,0.79,344.0,1.47,'1111122,1111122,1111122' 
COMPS,ioos:station:USF.COMPS:BGC:1,2014-11-01T08:48:00Z,26.4040,-81.8810,10.0,0.27,81.34,0.78,'1111122,1111122,1111122' 
COMPS,ioos:station:USF.COMPS:BGC:1,2014-11-01T08:54:00Z,26.4040,-81.8810,10.0,0.31,50.34,1.17,'1111122,1111122,1111122' 
COMPS,ioos:station:USF.COMPS:BGC:1,2014-11-01T09:00:00Z,26.4040,-81.8810,10.0,0.02,38.08,0.29,'1111122,1111122,1111122' 
COMPS,ioos:station:USF.COMPS:BGC:1,2014-11-01T09:12:00Z,26.4040,-81.8810,10.0,0.46,101.79,1.07,'1111122,1111122,1111122' 
COMPS,ioos:station:USF.COMPS:BGC:1,2014-11-01T09:18:00Z,26.4040,-81.8810,10.0,0.45,119.41,0.78,'1111122,1111122,1111122' 
COMPS,ioos:station:USF.COMPS:BGC:1,2014-11-01T09:24:00Z,26.4040,-81.8810,10.0,0.84,135.17,1.27,'1111122,1111122,1111122' 
COMPS,ioos:station:USF.COMPS:BGC:1,2014-11-01T09:30:00Z,26.4040,-81.8810,10.0,0.8,280.5,1.76,'1111122,1111122,1111122' 
COMPS,ioos:station:USF.COMPS:BGC:1,2014-11-01T09:36:00Z,26.4040,-81.8810,10.0,0.45,346.94,1.47,'1111122,1111122,1111122' 
COMPS,ioos:station:USF.COMPS:BGC:1,2014-11-01T09:42:00Z,26.4040,-81.8810,10.0,1.53,315.99,2.54,'1111122,1111122,1111122' 
COMPS,ioos:station:USF.COMPS:BGC:1,2014-11-01T09:48:00Z,26.4040,-81.8810,10.0,1.12,308.61,2.54,'1111122,1111122,1111122' 
COMPS,ioos:station:USF.COMPS:BGC:1,2014-11-01T09:54:00Z,26.4040,-81.8810,10.0,1.17,263.59,4.99,'1111122,1111122,1111122' 
COMPS,ioos:station:USF.COMPS:BGC:1,2014-11-01T10:00:00Z,26.4040,-81.8810,10.0,2.15,311.13,4.41,'1111122,1111122,1111122' 
COMPS,ioos:station:USF.COMPS:BGC:1,2014-11-01T10:06:00Z,26.4040,-81.8810,10.0,3.06,316.42,6.17,'1111122,1111122,1111122' 
COMPS,ioos:station:USF.COMPS:BGC:1,2014-11-01T10:12:00Z,26.4040,-81.8810,10.0,4.94,288.97,7.93,'1111122,1111122,1111122' 
COMPS,ioos:station:USF.COMPS:BGC:1,2014-11-01T10:18:00Z,26.4040,-81.8810,10.0,4.24,280.57,6.46,'1111122,1111122,1111122' 
COMPS,ioos:station:USF.COMPS:BGC:1,2014-11-01T10:24:00Z,26.4040,-81.8810,10.0,3.92,267.79,6.95,'1111122,1111122,1111122' 
COMPS,ioos:station:USF.COMPS:BGC:1,2014-11-01T10:30:00Z,26.4040,-81.8810,10.0,3.56,275.11,5.58,'1111122,1111122,1111122' 
COMPS,ioos:station:USF.COMPS:BGC:1,2014-11-01T10:36:00Z,26.4040,-81.8810,10.0,4.16,274.98,6.66,'1111122,1111122,1111122' 
COMPS,ioos:station:USF.COMPS:BGC:1,2014-11-01T10:42:00Z,26.4040,-81.8810,10.0,4.04,270.28,7.64,'1111122,1111122,1111122' 
COMPS,ioos:station:USF.COMPS:BGC:1,2014-11-01T10:48:00Z,26.4040,-81.8810,10.0,4.98,277.32,7.44,'1111122,1111122,1111122' 
COMPS,ioos:station:USF.COMPS:BGC:1,2014-11-01T10:54:00Z,26.4040,-81.8810,10.0,5.44,279.38,9.7,'1111122,1111122,1111122' 
COMPS,ioos:station:USF.COMPS:BGC:1,2014-11-01T11:00:00Z,26.4040,-81.8810,10.0,6.76,287.31,10.58,'1111122,1111122,1111122' 
COMPS,ioos:station:USF.COMPS:BGC:1,2014-11-01T11:06:00Z,26.4040,-81.8810,10.0,6.74,288.1,9.7,'1111122,1111122,1111122' 
COMPS,ioos:station:USF.COMPS:BGC:1,2014-11-01T11:12:00Z,26.4040,-81.8810,10.0,6.73,288.34,9.21,'1111122,1111122,1111122' 
COMPS,ioos:station:USF.COMPS:BGC:1,2014-11-01T11:18:00Z,26.4040,-81.8810,10.0,4.27,278.34,6.76,'1111122,1111122,1111122' 
COMPS,ioos:station:USF.COMPS:BGC:1,2014-11-01T11:24:00Z,26.4040,-81.8810,10.0,4.52,273.67,7.05,'1111122,1111122,1111122' 
COMPS,ioos:station:USF.COMPS:BGC:1,2014-11-01T11:30:00Z,26.4040,-81.8810,10.0,4.41,270.19,8.03,'1111122,1111122,1111122' 
COMPS,ioos:station:USF.COMPS:BGC:1,2014-11-01T11:36:00Z,26.4040,-81.8810,10.0,4.28,271.68,7.74,'1111122,1111122,1111122' 
COMPS,ioos:station:USF.COMPS:BGC:1,2014-11-01T11:42:00Z,26.4040,-81.8810,10.0,3.92,272.3,6.37,'1111122,1111122,1111122' 
COMPS,ioos:station:USF.COMPS:BGC:1,2014-11-01T11:48:00Z,26.4040,-81.8810,10.0,4.48,276.16,7.35,'1111122,1111122,1111122' 
COMPS,ioos:station:USF.COMPS:BGC:1,2014-11-01T11:54:00Z,26.4040,-81.8810,10.0,4.35,271.7,6.56,'1111122,1111122,1111122' 
COMPS,ioos:station:USF.COMPS:BGC:1,2014-11-01T12:00:00Z,26.4040,-81.8810,10.0,5.94,291.86,9.11,'1111122,1111122,1111122' 
COMPS,ioos:station:USF.COMPS:BGC:1,2014-11-01T12:06:00Z,26.4040,-81.8810,10.0,7.06,336.68,8.72,'1111122,1111122,1111122' 
COMPS,ioos:station:USF.COMPS:BGC:1,2014-11-01T12:12:00Z,26.4040,-81.8810,10.0,5.95,339.12,7.93,'1111122,1111122,1111122' 
COMPS,ioos:station:USF.COMPS:BGC:1,2014-11-01T12:18:00Z,26.4040,-81.8810,10.0,5.08,343.59,6.56,'1111122,1111122,1111122' 
COMPS,ioos:station:USF.COMPS:BGC:1,2014-11-01T12:24:00Z,26.4040,-81.8810,10.0,4.6,347.12,5.97,'1111122,1111122,1111122' 
COMPS,ioos:station:USF.COMPS:BGC:1,2014-11-01T12:30:00Z,26.4040,-81.8810,10.0,4.49,349.74,5.39,'1111122,1111122,1111122' 
COMPS,ioos:station:USF.COMPS:BGC:1,2014-11-01T12:36:00Z,26.4040,-81.8810,10.0,4.07,353.56,5.58,'1111122,1111122,1111122' 
COMPS,ioos:station:USF.COMPS:BGC:1,2014-11-01T12:42:00Z,26.4040,-81.8810,10.0,4.31,353.02,5.58,'1111122,1111122,1111122' 
COMPS,ioos:station:USF.COMPS:BGC:1,2014-11-01T12:48:00Z,26.4040,-81.8810,10.0,4.2,351.37,5.19,'1111122,1111122,1111122' 
COMPS,ioos:station:USF.COMPS:BGC:1,2014-11-01T12:54:00Z,26.4040,-81.8810,10.0,5.49,345.21,7.93,'1111122,1111122,1111122' 
COMPS,ioos:station:USF.COMPS:BGC:1,2014-11-01T13:00:00Z,26.4040,-81.8810,10.0,7.53,336.66,9.89,'1111122,1111122,1111122' 
COMPS,ioos:station:USF.COMPS:BGC:1,2014-11-01T13:06:00Z,26.4040,-81.8810,10.0,6.59,326.17,9.31,'1111122,1111122,1111122' 
COMPS,ioos:station:USF.COMPS:BGC:1,2014-11-01T13:12:00Z,26.4040,-81.8810,10.0,7.72,338.15,9.8,'1111122,1111122,1111122' 
COMPS,ioos:station:USF.COMPS:BGC:1,2014-11-01T13:18:00Z,26.4040,-81.8810,10.0,8.27,343.21,10.48,'1111122,1111122,1111122' 
COMPS,ioos:station:USF.COMPS:BGC:1,2014-11-01T13:24:00Z,26.4040,-81.8810,10.0,9.56,340.54,12.34,'1111122,1111122,1111122' 
COMPS,ioos:station:USF.COMPS:BGC:1,2014-11-01T13:30:00Z,26.4040,-81.8810,10.0,8.56,344.75,11.17,'1111122,1111122,1111122' 
COMPS,ioos:station:USF.COMPS:BGC:1,2014-11-01T13:36:00Z,26.4040,-81.8810,10.0,9.18,351.5,12.34,'1111122,1111122,1111122' 
COMPS,ioos:station:USF.COMPS:BGC:1,2014-11-01T13:42:00Z,26.4040,-81.8810,10.0,8.75,348.18,10.78,'1111122,1111122,1111122' 
COMPS,ioos:station:USF.COMPS:BGC:1,2014-11-01T13:48:00Z,26.4040,-81.8810,10.0,9.56,355.85,11.95,'1111122,1111122,1111122' 
COMPS,ioos:station:USF.COMPS:BGC:1,2014-11-01T13:54:00Z,26.4040,-81.8810,10.0,8.51,342.94,10.48,'1111122,1111122,1111122' 
COMPS,ioos:station:USF.COMPS:BGC:1,2014-11-01T14:00:00Z,26.4040,-81.8810,10.0,8.5,348.95,11.36,'1111122,1111122,1111122' 
COMPS,ioos:station:USF.COMPS:BGC:1,2014-11-01T14:06:00Z,26.4040,-81.8810,10.0,8.32,358.07,10.09,'1111122,1111122,1111122' 
COMPS,ioos:station:USF.COMPS:BGC:1,2014-11-01T14:12:00Z,26.4040,-81.8810,10.0,8.1,346.14,9.99,'1111122,1111122,1111122' 
COMPS,ioos:station:USF.COMPS:BGC:1,2014-11-01T14:18:00Z,26.4040,-81.8810,10.0,7.61,344.95,9.99,'1111122,1111122,1111122' 
COMPS,ioos:station:USF.COMPS:BGC:1,2014-11-01T14:24:00Z,26.4040,-81.8810,10.0,6.26,350.73,8.72,'1111122,1111122,1111122' 
COMPS,ioos:station:USF.COMPS:BGC:1,2014-11-01T14:30:00Z,26.4040,-81.8810,10.0,7.25,347.71,9.21,'1111122,1111122,1111122' 
COMPS,ioos:station:USF.COMPS:BGC:1,2014-11-01T14:36:00Z,26.4040,-81.8810,10.0,7.91,345.54,10.68,'1111122,1111122,1111122' 
COMPS,ioos:station:USF.COMPS:BGC:1,2014-11-01T14:42:00Z,26.4040,-81.8810,10.0,7.38,340.83,9.11,'1111122,1111122,1111122' 
COMPS,ioos:station:USF.COMPS:BGC:1,2014-11-01T14:48:00Z,26.4040,-81.8810,10.0,7.33,339.64,10.58,'1111122,1111122,1111122' 
COMPS,ioos:station:USF.COMPS:BGC:1,2014-11-01T14:54:00Z,26.4040,-81.8810,10.0,6.87,335.86,8.42,'1111122,1111122,1111122' 
COMPS,ioos:station:USF.COMPS:BGC:1,2014-11-01T15:00:00Z,26.4040,-81.8810,10.0,7.2,331.01,9.5,'1111122,1111122,1111122' 
COMPS,ioos:station:USF.COMPS:BGC:1,2014-11-01T15:06:00Z,26.4040,-81.8810,10.0,7.37,331.1,10.29,'1111122,1111122,1111122' 
COMPS,ioos:station:USF.COMPS:BGC:1,2014-11-01T15:12:00Z,26.4040,-81.8810,10.0,7.69,334.81,9.5,'1111122,1111122,1111122' 
COMPS,ioos:station:USF.COMPS:BGC:1,2014-11-01T15:18:00Z,26.4040,-81.8810,10.0,6.84,327.28,9.5,'1111122,1111122,1111122' 
COMPS,ioos:station:USF.COMPS:BGC:1,2014-11-01T15:24:00Z,26.4040,-81.8810,10.0,6.64,321.67,10.09,'1111122,1111122,1111122' 
COMPS,ioos:station:USF.COMPS:BGC:1,2014-11-01T15:30:00Z,26.4040,-81.8810,10.0,6.48,320.47,10.19,'1111122,1111122,1111122' 
COMPS,ioos:station:USF.COMPS:BGC:1,2014-11-01T15:36:00Z,26.4040,-81.8810,10.0,8.13,327.91,11.46,'1111122,1111122,1111122' 
COMPS,ioos:station:USF.COMPS:BGC:1,2014-11-01T15:42:00Z,26.4040,-81.8810,10.0,7.49,329.01,9.5,'1111122,1111122,1111122' 
COMPS,ioos:station:USF.COMPS:BGC:1,2014-11-01T15:48:00Z,26.4040,-81.8810,10.0,7.91,316.15,10.38,'1111122,1111122,1111122' 
COMPS,ioos:station:USF.COMPS:BGC:1,2014-11-01T15:54:00Z,26.4040,-81.8810,10.0,6.17,306.28,10.58,'1111122,1111122,1111122' 
COMPS,ioos:station:USF.COMPS:BGC:1,2014-11-01T16:00:00Z,26.4040,-81.8810,10.0,8.31,296.36,12.44,'1111122,1111122,1111122' 
COMPS,ioos:station:USF.COMPS:BGC:1,2014-11-01T16:06:00Z,26.4040,-81.8810,10.0,7.04,305.73,10.58,'1111122,1111122,1111122' 
COMPS,ioos:station:USF.COMPS:BGC:1,2014-11-01T16:12:00Z,26.4040,-81.8810,10.0,6.87,302.91,10.78,'1111122,1111122,1111122' 
COMPS,ioos:station:USF.COMPS:BGC:1,2014-11-01T16:18:00Z,26.4040,-81.8810,10.0,6.16,307.75,9.6,'1111122,1111122,1111122' 
COMPS,ioos:station:USF.COMPS:BGC:1,2014-11-01T16:24:00Z,26.4040,-81.8810,10.0,6.6,310.58,9.21,'1111122,1111122,1111122' 
COMPS,ioos:station:USF.COMPS:BGC:1,2014-11-01T16:30:00Z,26.4040,-81.8810,10.0,8.66,318.94,11.95,'1111122,1111122,1111122' 
COMPS,ioos:station:USF.COMPS:BGC:1,2014-11-01T16:36:00Z,26.4040,-81.8810,10.0,7.86,302.93,15.09,'1111122,1111122,1111122' 
COMPS,ioos:station:USF.COMPS:BGC:1,2014-11-01T16:42:00Z,26.4040,-81.8810,10.0,7.31,314.81,10.78,'1111122,1111122,1111122' 
COMPS,ioos:station:USF.COMPS:BGC:1,2014-11-01T16:48:00Z,26.4040,-81.8810,10.0,7.28,304.3,10.87,'1111122,1111122,1111122' 
COMPS,ioos:station:USF.COMPS:BGC:1,2014-11-01T16:54:00Z,26.4040,-81.8810,10.0,7.37,301.16,10.87,'1111122,1111122,1111122' 
COMPS,ioos:station:USF.COMPS:BGC:1,2014-11-01T17:00:00Z,26.4040,-81.8810,10.0,8.93,307.11,12.74,'1111122,1111122,1111122' 
COMPS,ioos:station:USF.COMPS:BGC:1,2014-11-01T17:06:00Z,26.4040,-81.8810,10.0,7.59,310.83,11.27,'1111122,1111122,1111122' 
COMPS,ioos:station:USF.COMPS:BGC:1,2014-11-01T17:12:00Z,26.4040,-81.8810,10.0,7.04,303.79,13.32,'1111122,1111122,1111122' 
COMPS,ioos:station:USF.COMPS:BGC:1,2014-11-01T17:18:00Z,26.4040,-81.8810,10.0,7.26,305.91,10.58,'1111122,1111122,1111122' 
COMPS,ioos:station:USF.COMPS:BGC:1,2014-11-01T17:24:00Z,26.4040,-81.8810,10.0,7.03,305.66,10.78,'1111122,1111122,1111122' 
COMPS,ioos:station:USF.COMPS:BGC:1,2014-11-01T17:30:00Z,26.4040,-81.8810,10.0,8.13,315.81,14.21,'1111122,1111122,1111122' 
COMPS,ioos:station:USF.COMPS:BGC:1,2014-11-01T17:36:00Z,26.4040,-81.8810,10.0,8.38,320.44,13.13,'1111122,1111122,1111122' 
COMPS,ioos:station:USF.COMPS:BGC:1,2014-11-01T17:42:00Z,26.4040,-81.8810,10.0,8.44,322.61,12.44,'1111122,1111122,1111122' 
COMPS,ioos:station:USF.COMPS:BGC:1,2014-11-01T17:48:00Z,26.4040,-81.8810,10.0,9.15,316.68,13.03,'1111122,1111122,1111122' 
COMPS,ioos:station:USF.COMPS:BGC:1,2014-11-01T17:54:00Z,26.4040,-81.8810,10.0,8.09,317.4,13.52,'1111122,1111122,1111122' 
COMPS,ioos:station:USF.COMPS:BGC:1,2014-11-01T18:00:00Z,26.4040,-81.8810,10.0,8.09,309.18,12.64,'1111122,1111122,1111122' 
COMPS,ioos:station:USF.COMPS:BGC:1,2014-11-01T18:06:00Z,26.4040,-81.8810,10.0,7.93,292.3,11.66,'1111122,1111122,1111122' 
COMPS,ioos:station:USF.COMPS:BGC:1,2014-11-01T18:12:00Z,26.4040,-81.8810,10.0,7.56,299.45,11.66,'1111122,1111122,1111122' 
COMPS,ioos:station:USF.COMPS:BGC:1,2014-11-01T18:18:00Z,26.4040,-81.8810,10.0,8.15,316.45,11.66,'1111122,1111122,1111122' 
COMPS,ioos:station:USF.COMPS:BGC:1,2014-11-01T18:24:00Z,26.4040,-81.8810,10.0,7.15,292.3,9.89,'1111122,1111122,1111122' 
COMPS,ioos:station:USF.COMPS:BGC:1,2014-11-01T18:30:00Z,26.4040,-81.8810,10.0,7.08,302.6,10.29,'1111122,1111122,1111122' 
COMPS,ioos:station:USF.COMPS:BGC:1,2014-11-01T18:36:00Z,26.4040,-81.8810,10.0,8.27,314.87,13.91,'1111122,1111122,1111122' 
COMPS,ioos:station:USF.COMPS:BGC:1,2014-11-01T18:42:00Z,26.4040,-81.8810,10.0,8.27,307.62,12.25,'1111122,1111122,1111122' 
COMPS,ioos:station:USF.COMPS:BGC:1,2014-11-01T18:48:00Z,26.4040,-81.8810,10.0,6.44,305.96,11.85,'1111122,1111122,1111122' 
COMPS,ioos:station:USF.COMPS:BGC:1,2014-11-01T18:54:00Z,26.4040,-81.8810,10.0,7.42,297.92,12.83,'1111122,1111122,1111122' 
COMPS,ioos:station:USF.COMPS:BGC:1,2014-11-01T19:00:00Z,26.4040,-81.8810,10.0,9.18,312.54,13.42,'1111122,1111122,1111122' 
COMPS,ioos:station:USF.COMPS:BGC:1,2014-11-01T19:06:00Z,26.4040,-81.8810,10.0,8.35,315.83,12.34,'1111122,1111122,1111122' 
COMPS,ioos:station:USF.COMPS:BGC:1,2014-11-01T19:12:00Z,26.4040,-81.8810,10.0,8.27,317.14,11.95,'1111122,1111122,1111122' 
COMPS,ioos:station:USF.COMPS:BGC:1,2014-11-01T19:18:00Z,26.4040,-81.8810,10.0,7.31,313.18,10.97,'1111122,1111122,1111122' 
COMPS,ioos:station:USF.COMPS:BGC:1,2014-11-01T19:24:00Z,26.4040,-81.8810,10.0,7.3,292.07,10.97,'1111122,1111122,1111122' 
COMPS,ioos:station:USF.COMPS:BGC:1,2014-11-01T19:30:00Z,26.4040,-81.8810,10.0,9.47,327.66,12.93,'1111122,1111122,1111122' 